TimeEDT,TemperatureF,Dew PointF,Humidity,Sea Level PressureIn,VisibilityMPH,Wind Direction,Wind SpeedMPH,Gust SpeedMPH,PrecipitationIn,Events,Conditions,WindDirDegrees,DateUTC
12:12 AM,63.1,62.6,98,29.59,10.0,Calm,Calm,-,N/A,,Overcast,0,2013-06-29 04:12:00
12:32 AM,63.1,62.6,98,29.59,10.0,Calm,Calm,-,N/A,,Overcast,0,2013-06-29 04:32:00
12:51 AM,63.1,62.6,98,29.59,10.0,Calm,Calm,-,N/A,,Mostly Cloudy,0,2013-06-29 04:51:00
1:11 AM,63.1,62.6,98,29.59,10.0,North,3.5,-,0.01,,Scattered Clouds,360,2013-06-29 05:11:00
1:31 AM,63.1,62.6,98,29.58,10.0,NNW,4.6,-,0.01,,Clear,340,2013-06-29 05:31:00
1:51 AM,63.1,62.6,98,29.58,10.0,NNW,4.6,-,0.01,,Scattered Clouds,330,2013-06-29 05:51:00
2:12 AM,63.1,62.8,99,29.58,10.0,NNW,4.6,-,N/A,,Mostly Cloudy,340,2013-06-29 06:12:00
2:31 AM,63.1,62.6,98,29.59,10.0,Calm,Calm,-,N/A,,Overcast,0,2013-06-29 06:31:00
2:51 AM,63.5,62.8,97,29.58,10.0,North,3.5,-,0.01,,Overcast,350,2013-06-29 06:51:00
3:12 AM,63.5,62.8,97,29.58,7.0,Calm,Calm,-,N/A,Rain,Light Rain,0,2013-06-29 07:12:00
3:31 AM,63.5,63.0,98,29.58,10.0,NNW,3.5,-,N/A,,Overcast,330,2013-06-29 07:31:00
3:51 AM,63.5,63.0,98,29.58,7.0,North,3.5,-,N/A,,Overcast,350,2013-06-29 07:51:00
4:12 AM,63.7,63.0,97,29.58,10.0,North,3.5,-,N/A,,Overcast,350,2013-06-29 08:12:00
4:31 AM,63.5,62.8,97,29.58,7.0,North,3.5,-,N/A,,Overcast,350,2013-06-29 08:31:00
4:51 AM,63.5,62.8,97,29.58,7.0,NNW,4.6,-,N/A,,Overcast,340,2013-06-29 08:51:00
5:12 AM,63.5,62.8,97,29.59,7.0,NNW,4.6,-,N/A,,Overcast,340,2013-06-29 09:12:00
5:31 AM,63.5,62.8,97,29.59,7.0,North,3.5,-,N/A,,Overcast,360,2013-06-29 09:31:00
5:51 AM,63.3,62.6,97,29.59,10.0,North,3.5,-,0.01,,Overcast,360,2013-06-29 09:51:00
6:12 AM,63.1,62.6,98,29.60,7.0,Calm,Calm,-,N/A,,Overcast,0,2013-06-29 10:12:00
6:31 AM,63.1,62.6,98,29.60,10.0,North,3.5,-,N/A,,Overcast,360,2013-06-29 10:31:00
6:51 AM,63.1,62.2,97,29.60,10.0,North,-9999.0,-,N/A,,Overcast,0,2013-06-29 10:51:00
7:12 AM,63.5,62.2,96,29.60,10.0,Calm,Calm,-,0.01,,Overcast,0,2013-06-29 11:12:00
7:31 AM,63.5,61.7,94,29.61,10.0,North,3.5,-,0.01,,Overcast,10,2013-06-29 11:31:00
7:51 AM,63.1,61.7,95,29.62,10.0,NNE,3.5,-,0.01,,Overcast,20,2013-06-29 11:51:00
8:11 AM,63.1,61.2,93,29.62,10.0,North,3.5,-,N/A,,Overcast,10,2013-06-29 12:11:00
8:32 AM,62.8,60.8,93,29.63,5.0,NNE,8.1,-,N/A,Rain,Rain,20,2013-06-29 12:32:00
8:51 AM,62.4,61.0,95,29.63,4.0,North,3.5,-,N/A,,Drizzle,10,2013-06-29 12:51:00
9:11 AM,62.6,60.3,92,29.64,10.0,NNE,4.6,-,0.01,,Overcast,30,2013-06-29 13:11:00
9:32 AM,62.4,60.4,93,29.64,10.0,Calm,Calm,-,0.01,,Overcast,0,2013-06-29 13:32:00
9:51 AM,62.8,60.8,93,29.64,10.0,North,4.6,-,0.01,,Overcast,350,2013-06-29 13:51:00
10:11 AM,62.4,60.3,93,29.64,10.0,NNE,4.6,-,N/A,,Overcast,30,2013-06-29 14:11:00
10:32 AM,63.1,60.3,90,29.64,10.0,Calm,Calm,-,N/A,,Overcast,0,2013-06-29 14:32:00
10:51 AM,63.9,60.4,89,29.64,10.0,Calm,Calm,-,0.01,,Overcast,0,2013-06-29 14:51:00
11:12 AM,64.8,61.2,88,29.65,10.0,Calm,Calm,-,N/A,,Overcast,0,2013-06-29 15:12:00
11:32 AM,65.5,61.2,86,29.66,10.0,Calm,Calm,-,N/A,,Overcast,0,2013-06-29 15:32:00
11:51 AM,66.9,61.0,81,29.66,10.0,NNE,4.6,-,N/A,,Overcast,20,2013-06-29 15:51:00
12:12 PM,67.1,60.3,79,29.66,10.0,NNE,5.8,-,N/A,,Overcast,30,2013-06-29 16:12:00
12:32 PM,67.5,60.1,77,29.67,10.0,NNE,3.5,-,0.01,,Mostly Cloudy,30,2013-06-29 16:32:00
12:51 PM,68.4,60.4,76,29.66,10.0,NE,3.5,-,0.01,,Overcast,40,2013-06-29 16:51:00
1:12 PM,68.4,60.1,75,29.66,10.0,North,4.6,-,N/A,,Overcast,360,2013-06-29 17:12:00
1:31 PM,68.5,60.4,75,29.66,10.0,NE,3.5,-,N/A,,Overcast,50,2013-06-29 17:31:00
1:51 PM,67.8,60.3,77,29.66,10.0,North,5.8,-,0.01,,Overcast,350,2013-06-29 17:51:00
2:12 PM,68.0,61.2,79,29.67,10.0,North,4.6,-,N/A,,Overcast,360,2013-06-29 18:12:00
2:31 PM,68.0,60.8,78,29.67,10.0,Calm,Calm,-,N/A,,Overcast,0,2013-06-29 18:31:00
2:51 PM,67.3,61.0,80,29.67,10.0,East,5.8,-,N/A,,Overcast,80,2013-06-29 18:51:00
3:12 PM,66.6,61.3,83,29.67,10.0,ENE,4.6,-,N/A,,Overcast,60,2013-06-29 19:12:00
3:31 PM,66.6,61.5,84,29.68,10.0,Calm,Calm,-,N/A,,Overcast,0,2013-06-29 19:31:00
3:52 PM,66.6,61.3,83,29.68,10.0,Calm,Calm,-,0.01,,Overcast,0,2013-06-29 19:52:00
4:12 PM,68.2,60.6,77,29.68,10.0,Calm,Calm,-,N/A,,Overcast,0,2013-06-29 20:12:00
4:31 PM,70.0,59.5,69,29.68,10.0,Calm,Calm,-,N/A,,Scattered Clouds,0,2013-06-29 20:31:00
4:52 PM,71.1,59.7,67,29.68,10.0,ENE,3.5,-,N/A,,Clear,60,2013-06-29 20:52:00
5:12 PM,71.6,59.4,65,29.69,10.0,Calm,Calm,-,N/A,,Scattered Clouds,0,2013-06-29 21:12:00
5:31 PM,71.4,59.5,66,29.69,10.0,East,6.9,-,0.01,,Overcast,90,2013-06-29 21:31:00
5:52 PM,70.2,60.6,72,29.70,10.0,East,5.8,-,0.01,,Mostly Cloudy,80,2013-06-29 21:52:00
6:12 PM,72.1,60.3,66,29.70,10.0,NE,4.6,-,N/A,,Mostly Cloudy,50,2013-06-29 22:12:00
6:31 PM,71.4,60.3,68,29.70,10.0,ENE,8.1,-,N/A,,Overcast,70,2013-06-29 22:31:00
6:52 PM,70.3,60.6,71,29.71,10.0,East,9.2,-,N/A,,Overcast,80,2013-06-29 22:52:00
7:12 PM,69.4,60.3,73,29.71,10.0,ENE,5.8,-,N/A,,Overcast,70,2013-06-29 23:12:00
7:31 PM,68.9,61.0,76,29.72,10.0,NE,5.8,-,N/A,,Overcast,50,2013-06-29 23:31:00
7:52 PM,68.4,60.6,76,29.73,10.0,Calm,Calm,-,0.01,,Overcast,0,2013-06-29 23:52:00
8:12 PM,67.6,60.6,78,29.74,10.0,Calm,Calm,-,N/A,,Overcast,0,2013-06-30 00:12:00
8:31 PM,67.3,60.4,79,29.74,10.0,Calm,Calm,-,N/A,,Overcast,0,2013-06-30 00:31:00
8:52 PM,66.6,60.6,81,29.74,10.0,Calm,Calm,-,N/A,,Overcast,0,2013-06-30 00:52:00
9:12 PM,66.0,60.4,82,29.75,10.0,Calm,Calm,-,N/A,,Overcast,0,2013-06-30 01:12:00
9:31 PM,65.3,59.9,83,29.75,10.0,NNE,3.5,-,0.01,,Overcast,20,2013-06-30 01:31:00
9:52 PM,64.8,60.3,85,29.76,10.0,Calm,Calm,-,0.01,,Overcast,0,2013-06-30 01:52:00
10:11 PM,63.7,61.3,92,29.76,10.0,Calm,Calm,-,N/A,,Overcast,0,2013-06-30 02:11:00
10:32 PM,61.9,60.8,96,29.77,10.0,Calm,Calm,-,N/A,,Scattered Clouds,0,2013-06-30 02:32:00
10:52 PM,61.3,60.6,97,29.77,10.0,Calm,Calm,-,N/A,,Scattered Clouds,0,2013-06-30 02:52:00
11:11 PM,60.6,60.1,98,29.77,10.0,Calm,Calm,-,N/A,,Scattered Clouds,0,2013-06-30 03:11:00
11:32 PM,59.9,59.2,97,29.78,10.0,Calm,Calm,-,N/A,,Scattered Clouds,0,2013-06-30 03:32:00
11:52 PM,59.5,59.0,98,29.78,10.0,NNW,5.8,-,N/A,,Clear,330,2013-06-30 03:52:00